Flag for Russia Weather past 2 weeks in Pyatigorsk, Russia

Now
63 °F

Broken clouds.


Feels Like: 63 °F
Forecast: 45 / 74 °F
Wind: 1 mph from North

Location: Mineral'Nye Vody

Current Time: Apr 28, 2015 at 7:18:53 PM

Latest Report: Apr 28, 2015 at 7:00 PM


Visibility: N/A

Pressure: 30.04 "Hg

Humidity: 56%

Dew point: 46 °F

Location of PyatigorskLocation

Historic Weather in Pyatigorsk — Graph

°F

Pyatigorsk temperature yesterday

Maximum temperature yesterday: 72 °F (at 2:00 PM)
Minimum temperature yesterday: 48 °F (at 2:00 AM)
Average temperature yesterday: 60 °F

Past Weeks' High & Low Weather Summary

 TemperatureHumidityPressure
High77 °F (Apr 18, 11:00 AM)100% (Apr 15, 4:00 AM)30.18 "Hg (Apr 15, 4:00 AM)
Low28 °F (Apr 16, 1:30 AM)22% (Apr 18, 11:00 AM)29.59 "Hg (Apr 19, 3:30 PM)
Average50 °F63%29.98 "Hg
* Reported Apr 13 6:00 PM — Apr 28 6:00 PM, Pyatigorsk, Weather by CustomWeather, © 2015

Note: Actual official high and low records may vary slightly from our data, if they occured in-between our weather recording intervals... More about our weather records

Advertising

Pyatigorsk weather history for previous 24 hours

 ConditionsComfort  
Time TempWeatherWind HumidityBarometerVisibility
6:00 PM
Tue, Apr 28
64 °FPartly sunny.3 mph52%30.04 "HgN/A
5:30 PM66 °FPartly sunny.3 mph49%30.04 "HgN/A
5:00 PM66 °FThunderstorms. Partly sunny.6 mph46%30.04 "HgN/A
4:30 PM68 °FThunderstorms. Partly sunny.8 mph40%30.04 "HgN/A
4:00 PM68 °FThundershowers. Partly sunny.13 mph40%30.04 "HgN/A
3:30 PM72 °FBroken clouds.6 mph38%30.04 "HgN/A
3:00 PM72 °FBroken clouds.6 mph36%30.04 "HgN/A
2:30 PM70 °FBroken clouds.6 mph35%30.04 "HgN/A
2:00 PM72 °FBroken clouds.6 mph38%30.04 "HgN/A
1:30 PM72 °FClear.6 mph36%30.04 "HgN/A
1:00 PM72 °FClear.10 mph38%30.04 "HgN/A
12:30 PM70 °FPartly sunny.8 mph40%30.04 "HgN/A
12:00 PM68 °FPartly sunny.6 mph49%30.07 "HgN/A
11:30 AM66 °FPartly sunny.10 mph52%30.07 "HgN/A
11:00 AM64 °FPartly sunny.13 mph52%30.07 "HgN/A
10:30 AM66 °FPartly sunny.13 mph49%30.07 "HgN/A
10:00 AM64 °FPartly sunny.10 mph52%30.07 "HgN/A
9:30 AM63 °FBroken clouds.8 mph59%30.07 "HgN/A
9:00 AM61 °FBroken clouds.8 mph59%30.07 "HgN/A
8:30 AM59 °FBroken clouds.10 mph59%30.07 "HgN/A
8:00 AM57 °FBroken clouds.8 mph63%30.07 "HgN/A
7:30 AM55 °FBroken clouds.8 mph67%30.07 "HgN/A
7:00 AM52 °FBroken clouds.8 mph77%30.07 "HgN/A
6:30 AM50 °FBroken clouds.6 mph76%30.07 "HgN/A
6:00 AM50 °FPartly cloudy.8 mph76%30.07 "HgN/A
5:30 AM50 °FPartly cloudy.10 mph76%30.04 "HgN/A
5:00 AM50 °FPartly cloudy.8 mph76%30.04 "HgN/A
4:30 AM50 °FClear.8 mph76%30.04 "HgN/A
4:00 AM50 °FClear.8 mph76%30.04 "HgN/A
3:30 AM50 °FClear.10 mph76%30.04 "HgN/A
3:00 AM50 °FClear.8 mph82%30.04 "HgN/A
2:30 AM50 °FClear.8 mph82%30.04 "HgN/A
2:00 AM52 °FClear.8 mph72%30.04 "HgN/A
1:30 AM52 °FClear.6 mph72%30.04 "HgN/A
1:00 AM50 °FClear.6 mph76%30.04 "HgN/A
12:30 AM52 °FClear.8 mph72%30.04 "HgN/A
12:00 AM52 °FClear.10 mph77%30.04 "HgN/A
11:30 PM
Mon, Apr 27
55 °FClear.10 mph63%30.07 "HgN/A
11:00 PM57 °FClear.10 mph59%30.04 "HgN/A
10:30 PM55 °FClear.10 mph63%30.07 "HgN/A
10:00 PM54 °FClear.8 mph67%30.07 "HgN/A
9:30 PM57 °FClear.3 mph59%30.07 "HgN/A
9:00 PM57 °FPartly cloudy.8 mph59%30.07 "HgN/A
8:30 PM57 °FPartly cloudy.10 mph59%30.07 "HgN/A
8:00 PM61 °FPartly sunny.8 mph52%30.07 "HgN/A
7:30 PM63 °FPartly sunny.10 mph49%30.04 "HgN/A
7:00 PM64 °FPartly sunny.10 mph46%30.04 "HgN/A
Weather by CustomWeather, © 2015

See weather overviewHow to use our weather pages